period_start,C,m1,H,J0,J1,J2,J3,J4,J5,JA,JB,JC,JD,JJ,JK,JN,#
2017-02-25 00:01:26,0.15,4.32,0.00,19.35,22.75,27.01,14.79,47.50,1018.55,2042.99,2154.09,2131.34,2441.69,599.99,604.64,17.48,0000 0000 0000 0000 000000
2017-02-25 00:06:28,0.15,4.33,0.00,19.37,22.75,27.01,14.76,47.52,1018.57,2042.99,2152.34,2129.89,2440.11,600.27,604.62,17.53,0000 0000 0000 0000 000000
2017-02-25 00:11:29,0.17,4.33,0.00,19.36,22.75,27.00,14.75,47.45,1018.56,2042.99,2150.54,2128.53,2438.55,600.17,604.82,17.58,0000 0000 0000 0000 000000
2017-02-25 00:16:30,0.13,4.34,0.00,19.38,22.75,27.00,14.67,47.45,1018.56,2042.99,2148.90,2127.28,2437.06,599.58,604.13,17.63,0000 0000 0000 0000 000000
2017-02-25 00:21:31,0.14,4.35,0.00,19.39,22.75,26.99,14.76,47.51,1018.57,2042.99,2147.37,2126.06,2435.68,599.97,604.53,17.68,0000 0000 0000 0000 000000
2017-02-25 00:26:32,0.15,4.36,0.00,19.39,22.74,27.01,14.69,47.67,1018.57,2042.99,2145.71,2124.81,2434.35,599.97,604.50,17.73,0000 0000 0000 0000 000000
2017-02-25 00:31:33,0.15,4.36,0.00,19.37,22.74,27.01,14.72,47.63,1018.57,2043.00,2144.19,2123.61,2432.86,600.05,604.62,17.78,0000 0000 0000 0000 000000
2017-02-25 00:36:35,0.14,4.37,0.00,19.39,22.74,27.01,14.71,47.54,1018.56,2043.00,2142.55,2122.39,2431.50,599.78,604.32,17.83,0000 0000 0000 0000 000000
2017-02-25 00:41:36,0.13,4.38,0.00,19.39,22.74,27.01,14.69,47.65,1018.57,2043.00,2140.93,2121.15,2430.16,599.92,604.57,17.88,0000 0000 0000 0000 000000
2017-02-25 00:46:37,0.15,4.38,0.00,19.39,22.74,26.99,14.79,47.63,1018.57,2043.00,2139.38,2119.91,2428.74,600.03,604.56,17.93,0000 0000 0000 0000 000000
2017-02-25 00:51:38,0.15,4.39,0.00,19.41,22.74,26.98,14.72,47.52,1018.57,2043.00,2137.72,2118.64,2427.35,599.98,604.51,17.98,0000 0000 0000 0000 000000
2017-02-25 00:56:40,0.17,4.40,0.00,19.41,22.74,27.01,14.71,47.52,1018.57,2043.00,2135.86,2117.12,2425.65,600.04,604.51,18.03,0000 0000 0000 0000 000000
2017-02-25 01:01:41,0.20,4.41,0.00,19.43,22.74,27.01,14.82,47.52,1018.57,2043.01,2133.79,2115.55,2423.73,600.12,604.65,18.08,0000 0000 0000 0000 000000
2017-02-25 01:06:42,0.22,4.42,0.00,19.44,22.75,27.01,14.73,47.42,1018.57,2043.00,2131.45,2113.67,2421.57,599.96,604.43,18.13,0000 0000 0000 0000 000000
2017-02-25 01:11:43,0.22,4.43,0.00,19.43,22.75,27.03,14.82,47.46,1018.57,2043.00,2129.13,2111.80,2419.47,600.35,604.67,18.18,0000 0000 0000 0000 000000
2017-02-25 01:16:45,0.20,4.44,0.00,19.44,22.75,27.03,14.65,47.44,1018.52,2043.00,2126.80,2110.20,2417.40,599.79,604.21,18.23,0000 0000 0000 0000 000000
2017-02-25 01:21:46,0.20,4.45,0.00,19.44,22.75,27.02,14.68,47.50,1018.38,2043.00,2124.58,2108.53,2415.52,599.83,604.37,18.28,0000 0000 0000 0000 000000
2017-02-25 01:26:47,0.17,4.46,0.00,19.45,22.75,27.04,14.81,47.64,1018.35,2043.00,2122.66,2107.06,2413.81,600.09,604.41,18.33,0000 0000 0000 0000 000000
2017-02-25 01:31:49,0.18,4.47,0.00,19.46,22.76,27.04,14.87,47.71,1018.45,2042.99,2120.72,2105.54,2412.11,600.10,604.40,18.38,0000 0000 0000 0000 000000
2017-02-25 01:36:50,0.17,4.48,0.00,19.46,22.76,27.03,14.71,47.67,1018.46,2042.99,2118.79,2104.01,2410.45,600.13,604.45,18.43,0000 0000 0000 0000 000000
2017-02-25 01:41:51,0.19,4.49,0.00,19.45,22.77,27.04,14.76,47.64,1018.37,2042.99,2116.84,2102.56,2408.66,599.98,604.25,18.48,0000 0000 0000 0000 000000
2017-02-25 01:46:53,0.18,4.50,0.00,19.44,22.77,27.05,14.73,47.64,1018.37,2042.99,2114.81,2100.95,2406.86,600.01,604.36,18.53,0000 0000 0000 0000 000000
2017-02-25 01:51:54,0.18,4.51,0.00,19.47,22.77,27.06,14.70,47.75,1018.49,2042.99,2112.82,2099.42,2405.14,600.06,604.43,18.58,0000 0000 0000 0000 000000
2017-02-25 01:56:55,0.21,4.52,0.00,19.48,22.77,27.06,14.78,47.75,1018.52,2042.99,2110.64,2097.65,2403.09,600.09,604.43,18.63,0000 0000 0000 0000 000000
2017-02-25 02:01:56,0.21,4.53,0.00,19.49,22.77,27.06,14.74,47.68,1018.55,2042.99,2108.46,2095.88,2401.09,600.04,604.37,18.68,0000 0000 0000 0000 000000
2017-02-25 02:06:58,0.22,4.54,0.00,19.49,22.77,27.07,14.80,47.63,1018.51,2042.99,2106.17,2094.06,2399.02,600.13,604.55,18.73,0000 0000 0000 0000 000000
2017-02-25 02:11:59,0.21,4.55,0.00,19.51,22.77,27.07,14.69,47.66,1018.31,2042.99,2103.79,2092.30,2396.93,599.85,604.02,18.78,0000 0000 0000 0000 000000
2017-02-25 02:17:00,0.22,4.56,0.00,19.51,22.79,27.09,14.78,47.83,1018.28,2042.99,2101.42,2090.42,2394.80,600.42,604.52,18.83,0000 0000 0000 0000 000000
2017-02-25 02:22:01,0.22,4.57,0.00,19.51,22.79,27.09,14.76,47.76,1018.25,2042.99,2099.14,2088.59,2392.79,599.95,604.05,18.88,0000 0000 0000 0000 000000
2017-02-25 02:27:03,0.21,4.59,0.00,19.52,22.79,27.10,14.70,47.84,1018.37,2042.97,2096.92,2086.84,2390.81,599.90,604.06,18.93,0000 0000 0000 0000 000000
2017-02-25 02:32:04,0.21,4.60,0.00,19.53,22.80,27.11,14.81,47.74,1018.48,2042.98,2094.63,2085.10,2388.76,600.16,604.33,18.98,0000 0000 0000 0000 000000
2017-02-25 02:37:05,0.20,4.61,0.00,19.55,22.81,27.13,14.76,47.83,1018.28,2042.99,2092.48,2083.38,2386.84,600.28,604.32,19.03,0000 0000 0000 0000 000000
2017-02-25 02:42:06,0.22,4.62,0.00,19.57,22.82,27.12,14.74,47.85,1018.14,2042.99,2090.31,2081.66,2384.90,600.25,604.16,19.08,0000 0000 0000 0000 000000
2017-02-25 02:47:08,0.20,4.63,0.00,19.57,22.82,27.13,14.71,48.01,1018.13,2042.98,2088.12,2079.98,2382.98,599.82,603.70,19.13,0000 0000 0000 0000 000000
2017-02-25 02:52:09,0.20,4.64,0.00,19.58,22.82,27.13,14.73,47.92,1018.10,2042.98,2085.94,2078.25,2380.98,599.88,603.84,19.18,0000 0000 0000 0000 000000
2017-02-25 02:57:10,0.21,4.65,0.00,19.60,22.84,27.14,14.73,47.96,1018.10,2042.98,2083.77,2076.56,2379.09,599.89,603.73,19.23,0000 0000 0000 0000 000000
2017-02-25 03:02:11,0.20,4.66,0.00,19.62,22.84,27.14,14.79,47.88,1018.13,2042.97,2081.63,2074.82,2377.15,600.23,603.90,19.28,0000 0000 0000 0000 000000
2017-02-25 03:07:12,0.18,4.67,0.00,19.63,22.85,27.17,14.72,47.84,1018.22,2042.96,2079.54,2073.21,2375.27,599.83,603.72,19.33,0000 0000 0000 0000 000000
2017-02-25 03:12:13,0.21,4.68,0.00,19.63,22.86,27.17,14.74,47.92,1018.38,2042.94,2077.40,2071.53,2373.33,599.85,603.85,19.38,0000 0000 0000 0000 000000
2017-02-25 03:17:14,0.20,4.69,0.00,19.65,22.87,27.16,14.76,47.92,1018.20,2042.91,2075.27,2069.82,2371.45,600.61,604.42,19.43,0000 0000 0000 0000 000000
2017-02-25 03:22:16,0.18,4.70,0.00,19.67,22.88,27.18,14.78,47.88,1018.39,2042.92,2073.29,2068.30,2369.63,600.25,604.16,19.48,0000 0000 0000 0000 000000
2017-02-25 03:27:17,0.17,4.71,0.00,19.69,22.89,27.19,14.75,47.86,1018.50,2042.74,2071.33,2066.69,2367.82,600.04,603.96,19.53,0000 0000 0000 0000 000000
2017-02-25 03:32:18,0.15,4.72,0.00,19.72,22.90,27.21,14.76,47.84,1018.53,2042.44,2069.40,2065.12,2366.18,600.11,603.96,19.58,0000 0000 0000 0000 000000
2017-02-25 03:37:20,0.16,4.72,0.00,19.73,22.92,27.23,14.78,47.90,1018.56,2042.18,2067.40,2063.56,2364.37,600.02,603.86,19.63,0000 0000 0000 0000 000000
2017-02-25 03:42:21,0.20,4.73,0.00,19.75,22.92,27.24,14.66,48.11,1018.56,2042.09,2065.31,2061.87,2362.51,599.90,603.72,19.68,0000 0000 0000 0000 000000
2017-02-25 03:47:22,0.19,4.74,0.00,19.77,22.93,27.22,14.76,48.05,1018.56,2042.05,2063.25,2060.27,2360.65,599.95,603.87,19.73,0000 0000 0000 0000 000000
2017-02-25 03:52:24,0.19,4.75,0.00,19.78,22.94,27.25,14.73,48.01,1018.57,2042.03,2061.28,2058.65,2358.86,600.03,603.77,19.78,0000 0000 0000 0000 000000
2017-02-25 03:57:25,0.19,4.76,0.00,19.81,22.96,27.25,14.64,47.91,1018.57,2042.02,2059.28,2057.05,2357.00,599.48,603.22,19.83,0000 0000 0000 0000 000000
2017-02-25 04:02:26,0.19,4.77,0.00,19.83,22.97,27.26,14.71,47.93,1018.57,2042.01,2057.27,2055.45,2355.17,599.96,603.51,19.88,0000 0000 0000 0000 000000
2017-02-25 04:07:27,0.20,4.78,0.00,19.88,22.99,27.28,14.75,47.88,1018.57,2042.01,2055.29,2053.79,2353.29,600.44,604.02,19.93,0000 0000 0000 0000 000000
2017-02-25 04:12:29,0.18,4.79,0.00,19.91,23.01,27.30,14.73,47.92,1018.57,2042.01,2053.46,2052.31,2351.59,600.27,603.71,19.98,0000 0000 0000 0000 000000
2017-02-25 04:17:30,0.20,4.80,0.00,19.92,23.03,27.32,14.66,47.84,1018.57,2042.00,2051.55,2050.71,2349.74,599.81,603.27,20.03,0000 0000 0000 0000 000000
2017-02-25 04:22:31,0.18,4.81,0.00,19.96,23.04,27.34,14.67,47.91,1018.57,2042.00,2049.65,2049.14,2347.88,599.78,603.12,20.09,0000 0000 0000 0000 000000
2017-02-25 04:27:32,0.20,4.82,0.00,20.00,23.07,27.36,14.69,47.88,1018.57,2042.00,2047.69,2047.54,2346.10,599.72,602.95,20.14,0000 0000 0000 0000 000000
2017-02-25 04:32:34,0.16,4.83,0.00,20.00,23.08,27.38,14.63,47.88,1018.57,2041.99,2046.04,2046.26,2344.27,599.75,603.08,20.19,0000 0000 0000 0000 000000
2017-02-25 04:37:35,0.20,4.84,0.00,20.02,23.10,27.40,14.82,47.83,1018.57,2041.99,2044.14,2044.66,2342.48,600.20,603.36,20.24,0000 0000 0000 0000 000000
2017-02-25 04:42:36,0.19,4.85,0.00,20.03,23.12,27.42,14.74,47.89,1018.57,2041.98,2042.19,2043.13,2340.69,600.07,603.31,20.29,0000 0000 0000 0000 000000
2017-02-25 04:47:38,0.20,4.86,0.00,20.04,23.14,27.42,14.77,47.88,1018.57,2041.96,2040.29,2041.54,2338.88,600.00,603.23,20.34,0000 0000 0000 0000 000000
2017-02-25 04:52:39,0.16,4.87,0.00,20.07,23.16,27.46,14.65,47.80,1018.57,2041.76,2038.28,2039.89,2337.01,599.90,603.02,20.39,0000 0000 0000 0000 000000
2017-02-25 04:57:40,0.15,4.88,0.00,20.09,23.18,27.47,14.78,47.72,1018.57,2041.32,2036.32,2038.27,2335.15,600.00,603.10,20.44,0000 0000 0000 0000 000000
2017-02-25 05:02:41,0.19,4.89,0.00,20.10,23.19,27.48,14.70,47.85,1018.57,2041.16,2034.42,2036.66,2333.34,600.30,603.47,20.49,0000 0000 0000 0000 000000
2017-02-25 05:07:43,0.18,4.89,0.00,20.11,23.22,27.51,14.70,47.78,1018.58,2041.05,2032.47,2035.07,2331.49,600.08,603.08,20.54,0000 0000 0000 0000 000000
2017-02-25 05:12:44,0.20,4.90,0.00,20.12,23.24,27.54,14.75,47.85,1018.58,2041.05,2030.47,2033.43,2329.61,600.11,603.11,20.59,0000 0000 0000 0000 000000
2017-02-25 05:17:45,0.20,4.92,0.00,20.14,23.25,27.53,14.77,47.95,1018.57,2041.00,2028.50,2031.79,2327.73,600.25,603.13,20.64,0000 0000 0000 0000 000000
2017-02-25 05:22:47,0.19,4.93,0.00,20.18,23.27,27.57,14.70,47.90,1018.57,2041.00,2026.62,2030.23,2325.95,599.84,602.96,20.69,0000 0000 0000 0000 000000
2017-02-25 05:27:48,0.20,4.94,0.00,20.20,23.29,27.60,14.61,47.92,1018.57,2041.00,2024.73,2028.67,2324.19,599.84,602.79,20.74,0000 0000 0000 0000 000000
2017-02-25 05:32:49,0.17,4.94,0.00,20.22,23.31,27.60,14.62,47.78,1018.57,2041.00,2022.94,2027.24,2322.55,599.71,602.54,20.79,0000 0000 0000 0000 000000
2017-02-25 05:37:50,0.18,4.95,0.00,20.24,23.32,27.61,14.72,47.85,1018.58,2040.99,2021.16,2025.74,2320.89,600.08,602.89,20.84,0000 0000 0000 0000 000000
2017-02-25 05:42:51,0.17,4.96,0.00,20.24,23.34,27.65,14.78,47.83,1018.57,2040.97,2019.44,2024.39,2319.28,600.23,603.15,20.89,0000 0000 0000 0000 000000
2017-02-25 05:47:53,0.18,4.97,0.00,20.24,23.37,27.66,14.73,47.82,1018.57,2040.98,2017.70,2022.92,2317.66,600.30,603.09,20.94,0000 0000 0000 0000 000000
2017-02-25 05:52:54,0.17,4.98,0.00,20.26,23.37,27.67,14.70,47.92,1018.57,2040.97,2016.01,2021.53,2316.02,600.07,602.78,20.99,0000 0000 0000 0000 000000
2017-02-25 05:57:55,0.16,4.99,0.00,20.28,23.39,27.69,14.80,47.93,1018.57,2040.92,2014.24,2020.07,2314.37,600.36,603.00,21.04,0000 0000 0000 0000 000000
2017-02-25 06:02:56,0.15,5.00,0.00,20.29,23.41,27.72,14.72,47.90,1018.57,2040.72,2012.50,2018.64,2312.74,599.99,602.66,21.09,0000 0000 0000 0000 000000
2017-02-25 06:07:57,0.14,5.01,0.00,20.32,23.42,27.74,14.58,47.82,1018.58,2040.41,2010.79,2017.29,2311.18,599.37,602.04,21.14,0000 0000 0000 0000 000000
2017-02-25 06:12:59,0.15,5.01,0.00,20.34,23.45,27.76,14.66,47.83,1018.58,2040.11,2009.01,2015.86,2309.52,600.06,602.77,21.19,0000 0000 0000 0000 000000
2017-02-25 06:18:00,0.17,5.02,0.00,20.32,23.46,27.77,14.69,47.90,1018.58,2040.06,2007.30,2014.38,2307.86,599.98,602.68,21.24,0000 0000 0000 0000 000000
2017-02-25 06:23:01,0.17,5.03,0.00,20.34,23.47,27.78,14.69,47.98,1018.62,2040.01,2005.56,2012.88,2306.29,600.03,602.71,21.29,0000 0000 0000 0000 000000
2017-02-25 06:28:02,0.17,5.04,0.00,20.36,23.49,27.80,14.72,47.88,1018.73,2040.02,2003.89,2011.58,2304.72,600.00,602.57,21.34,0000 0000 0000 0000 000000
2017-02-25 06:33:04,0.16,5.05,0.00,20.37,23.51,27.84,14.72,47.86,1018.69,2040.00,2002.18,2010.16,2303.13,600.12,602.73,21.39,0000 0000 0000 0000 000000
2017-02-25 06:38:05,0.18,5.06,0.00,20.38,23.52,27.84,14.76,47.98,1018.80,2040.00,2000.55,2008.80,2301.64,600.30,602.89,21.44,0000 0000 0000 0000 000000
2017-02-25 06:43:06,0.18,5.07,0.00,20.40,23.54,27.86,14.71,47.91,1018.97,2040.00,1998.84,2007.46,2300.07,599.92,602.61,21.49,0000 0000 0000 0000 000000
2017-02-25 06:48:08,0.16,5.08,0.00,20.42,23.55,27.87,14.67,47.88,1019.04,2040.00,1997.17,2006.00,2298.49,599.84,602.57,21.54,0000 0000 0000 0000 000000
2017-02-25 06:53:09,0.18,5.08,0.00,20.43,23.57,27.89,14.76,47.87,1019.04,2039.99,1995.55,2004.67,2296.92,600.29,602.91,21.59,0000 0000 0000 0000 000000
2017-02-25 06:58:10,0.17,5.09,0.00,20.46,23.57,27.90,14.77,47.97,1019.03,2039.99,1993.82,2003.41,2295.47,600.01,602.63,21.64,0000 0000 0000 0000 000000
2017-02-25 07:03:11,0.17,5.10,0.00,20.46,23.60,27.91,14.72,47.84,1019.02,2039.99,1992.17,2001.95,2293.79,600.28,602.86,21.69,0000 0000 0000 0000 000000
2017-02-25 07:08:12,0.18,5.11,0.00,20.47,23.61,27.91,14.58,47.83,1019.03,2039.98,1990.47,2000.58,2292.29,599.73,602.25,21.74,0000 0000 0000 0000 000000
2017-02-25 07:13:14,0.17,5.12,0.00,20.46,23.62,27.94,14.72,47.86,1019.06,2039.97,1988.73,1999.20,2290.66,600.30,602.94,21.79,0000 0000 0000 0000 000000
2017-02-25 07:18:15,0.18,5.13,0.00,20.49,23.64,27.96,14.76,47.86,1019.06,2039.89,1987.00,1997.76,2288.99,600.29,602.92,21.84,0000 0000 0000 0000 000000
2017-02-25 07:23:16,0.16,5.14,0.00,20.50,23.65,27.97,14.64,47.95,1019.06,2039.81,1985.30,1996.40,2287.48,599.98,602.47,21.89,0000 0000 0000 0000 000000
2017-02-25 07:28:18,0.16,5.15,0.00,20.49,23.66,27.98,14.81,47.86,1019.06,2039.70,1983.63,1994.89,2285.77,599.85,602.26,21.94,0000 0000 0000 0000 000000
2017-02-25 07:33:19,0.15,5.15,0.00,20.49,23.67,28.01,14.65,47.90,1019.08,2039.37,1981.89,1993.52,2284.12,599.43,602.02,21.99,0000 0000 0000 0000 000000
2017-02-25 07:38:20,0.16,5.16,0.00,20.48,23.69,28.00,14.71,47.84,1019.08,2039.28,1980.17,1992.07,2282.51,600.05,602.77,22.04,0000 0000 0000 0000 000000
2017-02-25 07:43:21,0.18,5.17,0.00,20.47,23.70,28.01,14.71,47.87,1019.07,2039.05,1978.38,1990.58,2280.79,599.80,602.45,22.09,0000 0000 0000 0000 000000
2017-02-25 07:48:23,0.18,5.18,0.00,20.47,23.71,28.02,14.69,47.98,1019.08,2039.02,1976.53,1989.01,2279.02,599.99,602.61,22.14,0000 0000 0000 0000 000000
2017-02-25 07:53:24,0.19,5.19,0.00,20.50,23.72,28.04,14.63,47.73,1019.14,2039.03,1974.72,1987.65,2277.46,599.78,602.37,22.19,0000 0000 0000 0000 000000
2017-02-25 07:58:24,0.19,5.20,0.00,20.49,23.73,28.04,14.72,48.01,1019.38,2039.01,1972.84,1986.18,2275.72,600.24,602.96,22.24,0000 0000 0000 0000 000000
2017-02-25 08:03:26,0.19,5.21,0.00,20.49,23.74,28.04,14.81,47.89,1019.50,2039.01,1971.04,1984.71,2274.06,600.00,602.90,22.29,0000 0000 0000 0000 000000
2017-02-25 08:08:27,0.17,5.22,0.00,20.51,23.75,28.05,14.74,47.84,1019.54,2039.01,1969.28,1983.43,2272.48,600.01,602.87,22.34,0000 0000 0000 0000 000000
2017-02-25 08:13:28,0.18,5.23,0.00,20.50,23.75,28.04,14.63,47.77,1019.54,2039.00,1967.55,1982.09,2270.80,599.87,602.72,22.39,0000 0000 0000 0000 000000
2017-02-25 08:18:30,0.19,5.24,0.00,20.51,23.77,28.04,14.71,47.78,1019.55,2039.00,1965.72,1980.64,2269.15,599.95,602.73,22.44,0000 0000 0000 0000 000000
2017-02-25 08:23:31,0.17,5.25,0.00,20.49,23.77,28.05,14.72,47.73,1019.55,2039.00,1964.04,1979.33,2267.57,600.05,603.08,22.49,0000 0000 0000 0000 000000
2017-02-25 08:28:32,0.19,5.25,0.00,20.49,23.77,28.06,14.67,47.72,1019.55,2039.00,1962.26,1977.83,2265.91,599.97,602.81,22.54,0000 0000 0000 0000 000000
2017-02-25 08:33:34,0.18,5.26,0.00,20.48,23.79,28.08,14.64,47.77,1019.55,2039.00,1960.57,1976.47,2264.34,599.96,602.91,22.59,0000 0000 0000 0000 000000
2017-02-25 08:38:35,0.17,5.27,0.00,20.47,23.80,28.07,14.70,47.83,1019.56,2038.99,1958.85,1975.15,2262.76,599.94,602.87,22.64,0000 0000 0000 0000 000000
2017-02-25 08:43:36,0.16,5.28,0.00,20.47,23.80,28.07,14.78,47.87,1019.58,2038.99,1957.31,1973.83,2261.36,600.11,603.11,22.69,0000 0000 0000 0000 000000
2017-02-25 08:48:37,0.18,5.29,0.00,20.47,23.80,28.06,14.64,47.79,1019.64,2038.99,1955.72,1972.60,2259.84,600.02,602.87,22.74,0000 0000 0000 0000 000000
2017-02-25 08:53:39,0.16,5.30,0.00,20.48,23.80,28.06,14.65,47.80,1019.60,2038.99,1954.03,1971.30,2258.35,599.73,602.66,22.79,0000 0000 0000 0000 000000
2017-02-25 08:58:40,0.18,5.31,0.00,20.47,23.82,28.06,14.66,47.88,1019.58,2038.99,1952.42,1969.88,2256.75,600.09,602.98,22.84,0000 0000 0000 0000 000000
2017-02-25 09:03:41,0.18,5.32,0.00,20.45,23.82,28.07,14.74,47.93,1019.69,2038.99,1950.72,1968.58,2255.27,600.25,603.40,22.89,0000 0000 0000 0000 000000
2017-02-25 09:08:42,0.17,5.33,0.00,20.45,23.82,28.06,14.74,47.83,1020.00,2038.99,1948.99,1967.31,2253.66,600.02,603.30,22.94,0000 0000 0000 0000 000000
2017-02-25 09:13:44,0.17,5.33,0.00,20.42,23.82,28.05,14.63,47.93,1020.01,2038.99,1947.38,1965.89,2252.13,599.86,603.15,22.99,0000 0000 0000 0000 000000
2017-02-25 09:18:46,0.18,5.34,0.00,20.44,23.82,28.04,14.70,47.96,1020.03,2038.98,1945.73,1964.63,2250.61,599.69,603.07,23.04,0000 0000 0000 0000 000000
2017-02-25 09:23:47,0.15,5.35,0.00,20.45,23.82,28.03,14.70,47.92,1020.03,2038.98,1944.18,1963.40,2249.18,600.34,603.55,23.09,0000 0000 0000 0000 000000
2017-02-25 09:28:48,0.18,5.36,0.00,20.43,23.82,28.05,14.72,47.97,1020.03,2038.97,1942.53,1962.03,2247.65,600.20,603.31,23.14,0000 0000 0000 0000 000000
2017-02-25 09:33:50,0.18,5.37,0.00,20.43,23.83,28.04,14.65,47.92,1020.04,2038.96,1940.87,1960.73,2246.12,599.62,602.87,23.19,0000 0000 0000 0000 000000
2017-02-25 09:38:51,0.16,5.38,0.00,20.39,23.83,28.04,14.72,47.88,1020.05,2038.98,1939.27,1959.53,2244.66,599.93,603.17,23.24,0000 0000 0000 0000 000000
2017-02-25 09:43:52,0.17,5.39,0.00,20.39,23.83,28.02,14.73,47.94,1020.08,2038.96,1937.64,1958.10,2243.09,600.18,603.61,23.29,0000 0000 0000 0000 000000
2017-02-25 09:48:53,0.18,5.40,0.00,20.38,23.83,28.01,14.70,47.88,1020.12,2038.96,1935.93,1956.78,2241.56,600.05,603.45,23.34,0000 0000 0000 0000 000000
2017-02-25 09:53:54,0.17,5.40,0.00,20.37,23.83,28.01,14.77,47.96,1020.15,2038.96,1934.33,1955.52,2240.04,600.03,603.55,23.39,0000 0000 0000 0000 000000
2017-02-25 09:58:56,0.16,5.41,0.00,20.38,23.82,28.00,14.71,47.87,1020.25,2038.96,1932.74,1954.35,2238.75,599.80,603.24,23.44,0000 0000 0000 0000 000000
2017-02-25 10:03:57,0.17,5.42,0.00,20.34,23.82,27.99,14.69,47.89,1020.31,2038.96,1931.11,1952.95,2237.22,599.69,603.24,23.49,0000 0000 0000 0000 000000
2017-02-25 10:08:58,0.17,5.43,0.00,20.33,23.82,27.99,14.79,47.83,1020.44,2038.96,1929.51,1951.74,2235.75,600.03,603.71,23.54,0000 0000 0000 0000 000000
2017-02-25 10:13:59,0.18,5.44,0.00,20.33,23.82,27.98,14.75,47.84,1020.48,2038.98,1927.85,1950.46,2234.33,600.26,604.01,23.59,0000 0000 0000 0000 000000
2017-02-25 10:19:00,0.16,5.45,0.00,20.35,23.82,27.98,14.73,47.74,1020.51,2038.97,1926.22,1949.10,2232.74,600.15,603.88,23.64,0000 0000 0000 0000 000000
2017-02-25 10:24:02,0.18,5.46,0.00,20.33,23.82,27.98,14.79,47.77,1020.51,2038.97,1924.57,1947.81,2231.33,599.95,603.73,23.69,0000 0000 0000 0000 000000
2017-02-25 10:29:03,0.18,5.47,0.00,20.33,23.82,27.96,14.66,47.83,1020.45,2038.96,1922.86,1946.52,2229.74,599.83,603.52,23.74,0000 0000 0000 0000 000000
2017-02-25 10:34:04,0.16,5.48,0.00,20.31,23.81,27.97,14.76,47.83,1020.43,2038.97,1921.20,1945.26,2228.30,600.12,603.95,23.79,0000 0000 0000 0000 000000
2017-02-25 10:39:06,0.18,5.49,0.00,20.30,23.80,27.94,14.82,47.90,1020.33,2038.97,1919.65,1943.95,2226.76,600.21,603.80,23.84,0000 0000 0000 0000 000000
2017-02-25 10:44:07,0.18,5.50,0.00,20.31,23.80,27.93,14.76,47.98,1020.12,2038.98,1918.02,1942.65,2225.35,600.00,603.57,23.89,0000 0000 0000 0000 000000
2017-02-25 10:49:08,0.18,5.51,0.00,20.30,23.80,27.92,14.63,47.87,1020.15,2038.97,1916.30,1941.30,2223.71,599.64,603.19,23.95,0000 0000 0000 0000 000000
2017-02-25 10:54:09,0.17,5.51,0.00,20.25,23.79,27.90,14.73,47.97,1020.12,2038.97,1914.60,1940.02,2222.22,600.01,603.79,24.00,0000 0000 0000 0000 000000
2017-02-25 10:59:10,0.19,5.52,0.00,20.23,23.77,27.91,14.81,47.90,1020.39,2038.99,1912.99,1938.75,2220.74,600.17,604.13,24.05,0000 0000 0000 0000 000000
2017-02-25 11:04:11,0.16,5.53,0.00,20.24,23.77,27.89,14.68,47.83,1020.50,2038.99,1911.47,1937.58,2219.35,599.90,603.88,24.10,0000 0000 0000 0000 000000
2017-02-25 11:09:12,0.17,5.54,0.00,20.22,23.77,27.90,14.81,47.92,1020.51,2038.99,1909.82,1936.34,2217.87,599.96,603.87,24.15,0000 0000 0000 0000 000000
2017-02-25 11:14:14,0.15,5.55,0.00,20.20,23.77,27.87,14.71,47.89,1020.52,2038.98,1908.34,1935.17,2216.53,599.93,603.99,24.20,0000 0000 0000 0000 000000
2017-02-25 11:19:15,0.15,5.56,0.00,20.22,23.75,27.86,14.69,47.92,1020.52,2038.99,1906.82,1934.10,2215.27,599.80,603.86,24.25,0000 0000 0000 0000 000000
2017-02-25 11:24:16,0.14,5.56,0.00,20.20,23.75,27.86,14.73,47.89,1020.52,2038.99,1905.47,1933.08,2214.06,600.03,603.91,24.30,0000 0000 0000 0000 000000
2017-02-25 11:29:18,0.13,5.57,0.00,20.19,23.74,27.86,14.81,48.11,1020.52,2038.99,1904.25,1932.12,2212.95,600.45,604.37,24.35,0000 0000 0000 0000 000000
2017-02-25 11:34:19,0.14,5.58,0.00,20.20,23.72,27.83,14.73,48.23,1020.51,2038.99,1902.95,1931.21,2211.83,599.96,604.06,24.40,0000 0000 0000 0000 000000
2017-02-25 11:39:20,0.13,5.58,0.00,20.19,23.72,27.84,14.81,48.25,1020.52,2038.99,1901.75,1930.37,2210.76,600.10,604.22,24.45,0000 0000 0000 0000 000000
2017-02-25 11:44:21,0.11,5.59,0.00,20.16,23.72,27.80,14.74,48.17,1020.52,2038.99,1900.62,1929.58,2209.85,599.82,603.85,24.50,0000 0000 0000 0000 000000
2017-02-25 11:49:23,0.09,5.59,0.00,20.17,23.70,27.81,14.74,48.02,1020.52,2039.00,1899.54,1928.85,2208.92,600.30,604.43,24.55,0000 0000 0000 0000 000000
2017-02-25 11:54:24,0.11,5.60,0.00,20.17,23.70,27.80,14.77,48.02,1020.52,2039.00,1898.50,1928.05,2207.98,599.80,603.92,24.60,0000 0000 0000 0000 000000
2017-02-25 11:59:25,0.12,5.61,0.00,20.16,23.70,27.80,14.71,47.84,1020.52,2039.00,1897.37,1927.29,2207.05,600.06,604.14,24.65,0000 0000 0000 0000 000000
2017-02-25 12:04:27,0.10,5.61,0.00,20.12,23.69,27.80,14.84,47.94,1020.52,2039.00,1896.39,1926.63,2206.16,600.35,604.66,24.70,0000 0000 0000 0000 000000
2017-02-25 12:09:28,0.09,5.62,0.00,20.11,23.67,27.79,14.72,47.79,1020.52,2039.01,1895.30,1925.96,2205.24,599.76,603.91,24.75,0000 0000 0000 0000 000000
2017-02-25 12:14:30,0.12,5.62,0.00,20.09,23.67,27.76,14.69,47.71,1020.53,2039.00,1894.28,1925.13,2204.38,600.09,604.36,24.80,0000 0000 0000 0000 000000
2017-02-25 12:19:31,0.11,5.63,0.00,20.09,23.67,27.78,14.75,47.88,1020.52,2039.03,1893.24,1924.51,2203.55,600.00,604.27,24.85,0000 0000 0000 0000 000000
2017-02-25 12:24:32,0.07,5.63,0.00,20.08,23.65,27.73,14.73,47.83,1020.52,2039.04,1892.20,1923.97,2202.81,599.99,604.37,24.90,0000 0000 0000 0000 000000
2017-02-25 12:29:33,0.11,5.64,0.00,20.09,23.65,27.77,14.72,47.88,1020.52,2039.05,1891.23,1923.14,2201.98,599.94,604.24,24.95,0000 0000 0000 0000 000000
2017-02-25 12:34:35,0.10,5.64,0.00,20.09,23.64,27.75,14.71,47.94,1020.52,2039.11,1890.21,1922.72,2201.11,600.13,604.48,25.00,0000 0000 0000 0000 000000
2017-02-25 12:39:36,0.09,5.65,0.00,20.09,23.63,27.70,14.66,47.84,1020.52,2039.12,1889.30,1922.02,2200.34,599.53,604.02,25.05,0000 0000 0000 0000 000000
2017-02-25 12:44:37,0.12,5.65,0.00,20.08,23.62,27.71,14.75,47.87,1020.52,2039.24,1888.35,1921.37,2199.63,599.94,604.19,25.10,0000 0000 0000 0000 000000
2017-02-25 12:49:38,0.09,5.66,0.00,20.06,23.62,27.72,14.74,47.77,1020.52,2039.37,1887.39,1920.86,2198.87,600.11,604.44,25.15,0000 0000 0000 0000 000000
2017-02-25 12:54:39,0.11,5.66,0.00,20.06,23.60,27.74,14.76,47.82,1020.52,2039.32,1886.31,1920.06,2198.05,599.93,604.26,25.20,0000 0000 0000 0000 000000